Location: Marsån
(66.4167°N, 22.2833°E)
Time: 11:04:54
(UTC+00:00)

COSMOS 2406 - Pass Details

Date: 24 February 2024
Orbit: 842 x 864 km, 71.0° (Epoch: 15 April)

Event Time Altitude Azimuth Distance (km) Brightness Sun altitude
Rises 18:44:01 0° 211° (SSW) 3,404 6.4 -20.3°
Reaches altitude 10° 18:46:28 10° 208° (SSW) 2,474 5.7 -20.6°
Maximum altitude 18:52:03 61° 130° (SE) 969 3.2 -21.1°
Enters shadow 18:56:33 16° 54° (NE) 2,080 5.0 -21.5°
